Location: *
(51.8167°N, 12.5000°E)
Time: 13:38:21
(UTC+00:00)

Cosmos 1452 Rocket - Pass Details

Date: 16 September 2019
Orbit: 767 x 775 km, 74.1° (Epoch: 18 October)

Event Time Altitude Azimuth Distance (km) Brightness Sun altitude
Exits shadow 20:24:03 35° 51° (NE) 1,230 4.4 -25.9°
Drops below altitude 10° 20:27:15 10° 32° (NNE) 2,320 6.1 -26.3°
Sets 20:29:40 0° 28° (NNE) 3,251 7.0 -26.6°
